Preview of NWS' New Version of Forecast
This preview is not operational and should not be used for support decisions.

Regional Weather Roundup (RWR)

Issued by Philadelphia/Mt Holly (PHI)

                            
000
ASUS41 KPHI 170112
RWRPHI

REGIONAL WEATHER ROUNDUP
NATIONAL WEATHER SERVICE MOUNT HOLLY NJ
900 PM EDT MON SEP 16 2019

NOTE:  "FAIR" INDICATES FEW OR NO CLOUDS BELOW 12,000 FEET WITH NO
SIGNIFICANT WEATHER AND/OR OBSTRUCTIONS TO VISIBILITY.

 * = STATION DOES NOT REPORT PRECIPITATION (E.G. RAIN, SNOW, ETC.) 
        OR FOG.

NJZ015>026-170200-
SOUTHERN NEW JERSEY
  
CITY           SKY/WX    TMP DP  RH WIND       PRES   REMARKS
POMONA         FAIR      70  65  84 E3        30.01S                  
WILDWOOD*      CLOUDY    73  70  90 SE5       30.01R                  
MILLVILLE      FAIR      70  62  76 E3        30.00S                  
WRIGHTSTOWN    PTCLDY    66  63  88 E3        30.02R                  
MOUNT HOLLY    FAIR      70  64  81 CALM      30.02R                  
TRENTON        CLOUDY    71  64  78 E5        30.02R                  

$$
NJZ001>014-170200-
NORTHERN NEW JERSEY
  
CITY           SKY/WX    TMP DP  RH WIND       PRES   REMARKS
SUSSEX         FAIR      62  60  93 CALM      30.05R                  
ANDOVER*         N/A     63  62  97 CALM      30.05R                  
MORRISTOWN     MOCLDY    66  66 100 N3        30.04R                  
NEWARK         MOCLDY    72  64  76 CALM      30.03R                  
TETERBORO      CLOUDY    73  60  63 CALM      30.02R                  
CALDWELL       FAIR      70  63  78 CALM      30.04R                  
SOMERVILLE     CLOUDY    71  66  84 CALM      30.02R                  
ALLAIRE*       FAIR      68  66  93 CALM      30.04S                  
TOMS RIVER*    FAIR      67  32  27 NE3       30.03S                  

$$
PAZ043-044-047-054-055-060>062-066>071-170200-
EASTERN PENNSYLVANIA
  
CITY           SKY/WX    TMP DP  RH WIND       PRES   REMARKS
PHILADELPHIA   MOCLDY    74  63  68 E12       30.01R                  
NORTH PHILA    CLOUDY    74  61  63 E8        30.03R                  
BLUE BELL*     CLOUDY    71  65  80 NE3       30.03R                  
DOYLESTOWN     CLOUDY    73  63  70 CALM      30.03R                  
QUAKERTOWN*    MOCLDY    72  66  83 CALM      30.05                   
PERKASIE*      CLOUDY    70  66  88 NE5       30.05S                  
POTTSTOWN      MOCLDY    69  65  86 NE6       30.04R                  
LANCASTER      FAIR      71  63  75 NE6       30.02R                  
COATESVILLE    FAIR      70  64  83 CALM      30.04R                  
WEST CHESTER   MOCLDY    73  63  68 NE3       30.02S                  
READING        NOT AVBL                                               
ALLENTOWN      FAIR      70  62  76 N3        30.04R                  
QN CITY/ALNTWN MOCLDY    70  64  83 CALM      30.05R                  
MOUNT POCONO   FAIR      57  57 100 CALM      30.10R                  
HAZLETON       FAIR      64  59  82 N3        30.12R                  
LEHIGHTON      MOCLDY    63  63 100 CALM      30.06R                  
WILKES BARRE   FAIR      65  60  84 E3        30.08R                  

$$
DEZALL-MDZ008-012-015-019-020-170200-
DELAWARE AND EASTERN MARYLAND
  
CITY           SKY/WX    TMP DP  RH WIND       PRES   REMARKS
WILMINGTON     CLOUDY    76  67  73 SE5       30.01R                  
DOVER          CLOUDY    74  67  80 SE6       29.99S                  
CHESWOLD         N/A     73  66  78 MISG      29.99S                  
GEORGETOWN     MOCLDY    72  66  81 E3        30.00R                  
EASTON         CLEAR     79  66  65 CALM      30.02R                  
STEVENSVILLE   CLOUDY    79  66  65 E5        29.98S                  
PATUXENT       FAIR      76  65  68 SE5       29.97R                  
OCEAN CITY     FAIR      74  69  85 S3        30.00S                  
WALLOPS ISLAND FAIR      72  69  90 S6        30.00R                  
CAMBRIDGE      PTCLDY    75  70  83 CALM      29.98R                  
SALISBURY      FAIR      71  66  84 SE3       29.99S                  

$$
PAZ001-021-NYZ056-072-MDZ011-DCZ001-170200-
OTHER NEARBY LOCATIONS
  
CITY           SKY/WX    TMP DP  RH WIND       PRES   REMARKS
HARRISBURG     MOCLDY    75  63  66 CALM      30.01R                  
STATE COLLEGE  MOCLDY    68  64  88 NE7       30.07R                  
WILLIAMSPORT   CLOUDY    68  64  87 CALM      30.05R                  
BINGHAMTON     FAIR      57  47  69 NE7       30.10R                  
NEW YORK CITY  FAIR      71  62  73 CALM      30.06R                  
BALTIMORE      MOCLDY    80  63  55 E7        29.98S                  
WASHINGTON DC  MOCLDY    80  64  58 E3        29.98R                  

$$